Tracking 28514 objects as of 23-Feb-2024
HD Live streaming from Space Station
objects crossing your sky now

GORIZONT 2

Track GORIZONT 2 now!
GORIZONT 2 is classified as:


NORAD ID: 11440
Int'l Code: 1979-062A
Perigee: 35,788.5 km
Apogee: 35,818.9 km
Inclination: 7.8 °
Period: 1,436.6 minutes
Semi major axis: 42174 km
RCS: 3.981 m2 (large)
Launch date: July 5, 1979
Source: Commonwealth of Independent States (former USSR) (CIS)
Launch site: TYURATAM MISSILE AND SPACE COMPLEX (TTMTR)
Your satellite tracking list
Your tracking list is empty




NASA's NSSDC Master Catalog

Two Line Element Set (TLE):
1 11440U 79062A   24054.61956882 -.00000088  00000-0  00000-0 0  9991
2 11440   7.8150 294.7953 0003606 338.2114 178.0303  1.00236405129554
Source of the keplerian elements: AFSPC